Home   Weather   Halberstadt   Past weeks

Flag for Germany Past Weather in Halberstadt, Saxony-Anhalt, Germany — Yesterday and Last 2 Weeks

Now
48 °F

Light rain. Partly sunny.


Feels Like: 42 °F
Forecast: 36 / 44 °F
Wind: 18 mph from West

Location: Braunschweig Wolfsburg

Current Time: Dec 11, 2016 at 9:01:47 am

Latest Report: Dec 11, 2016 at 8:20 am


Visibility: N/A

Pressure: 29.77 "Hg

Humidity: 94%

Dew Point: 46 °F

Location of HalberstadtLocation

Past Weather in Halberstadt — Graph

°F

Halberstadt Temperature Yesterday

Maximum temperature yesterday: 48 °F (at 11:50 am)
Minimum temperature yesterday: 45 °F (at 9:20 am)
Average temperature yesterday: 47 °F

High & Low Weather Summary for the Past Weeks

 TemperatureHumidityPressure
High48 °F (Dec 8, 1:50 pm)100% (Nov 26, 8:20 am)30.57 "Hg (Nov 26, 8:20 am)
Low19 °F (Nov 29, 7:20 am)52% (Dec 5, 1:50 pm)29.77 "Hg (Dec 11, 7:50 am)
Average37 °F82%30.29 "Hg
* Reported Nov 26 7:50 am — Dec 11 7:50 am, Halberstadt, Weather by CustomWeather, © 2016

Note: Actual official high and low records may vary slightly from our data, if they occured in-between our weather recording intervals... More about our weather records

Advertising

Halberstadt Weather History for the Previous 24 Hours

Scroll right to see more
 ConditionsComfort  
Time TempWeatherWind HumidityBarometerVisibility
7:50 am
Sun, Dec 11
46 °FDrizzle. Low clouds.10 mph100%29.77 "Hg3 mi
8:20 pm
Sat, Dec 10
46 °FDrizzle. Low clouds.9 mph93%30.12 "Hg4 mi
7:50 pm46 °FOvercast.8 mph93%30.12 "Hg4 mi
5:50 pm46 °FLight rain. Fog.6 mph93%30.12 "Hg2 mi
5:20 pm46 °FLight rain. Fog.7 mph93%30.12 "Hg1 mi
4:50 pm46 °FDrizzle. Fog.8 mph93%30.12 "Hg2 mi
4:20 pm46 °FDrizzle. Fog.8 mph93%30.15 "Hg2 mi
3:50 pm46 °FFog.7 mph93%30.15 "Hg1 mi
3:20 pm46 °FFog.7 mph93%30.15 "Hg1 mi
2:50 pm46 °FDrizzle. Fog.7 mph87%30.15 "Hg2 mi
2:20 pm46 °FDrizzle. Fog.9 mph87%30.15 "Hg3 mi
1:50 pm48 °FOvercast.12 mph76%30.12 "HgN/A
1:20 pm48 °FPartly sunny.12 mph76%30.12 "HgN/A
12:50 pm48 °FPartly sunny.12 mph76%30.15 "HgN/A
12:20 pm48 °FPartly sunny.14 mph76%30.15 "HgN/A
11:50 am48 °FPartly sunny.13 mph76%30.15 "HgN/A
11:20 am46 °FBroken clouds.10 mph82%30.15 "HgN/A
10:50 am46 °FSunny.9 mph76%30.15 "Hg10 mi
10:20 am46 °FPassing clouds.12 mph76%30.15 "HgN/A
9:50 am46 °FPassing clouds.15 mph76%30.15 "HgN/A
9:20 am45 °FSunny.12 mph81%30.15 "Hg10 mi
Weather by CustomWeather, © 2016

See weather overviewHow to use our weather pages